Home   Weather   Idaho Falls   Past weeks

Flag for USA Past Weather in Idaho Falls, Idaho, USA — Yesterday and Last 2 Weeks

Now
76 °F

Sunny.


Feels Like: 77 °F
Forecast: 39 / 73 °F
Wind: 3 mph from North

Location: Fanning Field

Current Time: Sep 27, 2016 at 4:31:03 PM

Latest Report: Sep 27, 2016 at 3:53 PM


Visibility: 10 mi

Pressure: 30.09 "Hg (25.53 "Hg at 1429m altitude)

Humidity: 25%

Dew Point: 38 °F

Location of Idaho FallsLocation

Past Weather in Idaho Falls — Graph

°F

Idaho Falls Temperature Yesterday

Maximum temperature yesterday: 71 °F (at 3:53 PM)
Minimum temperature yesterday: 37 °F (at 7:53 AM)
Average temperature yesterday: 53 °F

High & Low Weather Summary for the Past Weeks

 TemperatureHumidityPressure
High81 °F (Sep 20, 2:53 PM)96% (Sep 22, 7:53 PM)30.51 "Hg (Sep 22, 7:53 PM)
Low34 °F (Sep 25, 6:53 AM)19% (Sep 17, 3:53 PM)29.70 "Hg (Sep 22, 3:53 PM)
Average55 °F64%30.06 "Hg
* Reported Sep 12 2:53 PM — Sep 27 2:53 PM, Idaho Falls, Weather by CustomWeather, © 2016

Note: Actual official high and low records may vary slightly from our data, if they occured in-between our weather recording intervals... More about our weather records

Advertising

Idaho Falls Weather History for the Previous 24 Hours

Scroll right to see more
 ConditionsComfort  
Time TempWeatherWind HumidityBarometerVisibility
2:53 PM
Tue, Sep 27
73 °FSunny.5 mph28%30.10 "Hg10 mi
1:53 PM72 °FSunny.3 mph34%30.13 "Hg10 mi
12:53 PM67 °FSunny.No wind45%30.16 "Hg10 mi
11:53 AM64 °FSunny.5 mph50%30.19 "Hg10 mi
10:53 AM59 °FSunny.3 mph67%30.21 "Hg10 mi
9:53 AM53 °FSunny.5 mph77%30.24 "Hg10 mi
8:53 AM46 °FSunny.5 mph89%30.23 "Hg10 mi
7:53 AM40 °FClear.5 mph93%30.23 "Hg10 mi
6:53 AM40 °FClear.5 mph93%30.22 "Hg10 mi
5:53 AM41 °FClear.No wind93%30.19 "Hg10 mi
4:53 AM42 °FClear.5 mph89%30.19 "Hg10 mi
3:53 AM42 °FClear.6 mph89%30.19 "Hg10 mi
2:53 AM44 °FClear.5 mph89%30.21 "Hg10 mi
1:53 AM44 °FClear.6 mph89%30.21 "Hg10 mi
12:53 AM44 °FClear.6 mph89%30.23 "Hg10 mi
11:53 PM
Mon, Sep 26
46 °FClear.3 mph86%30.23 "Hg10 mi
10:53 PM48 °FClear.3 mph83%30.25 "Hg10 mi
9:53 PM49 °FClear.No wind84%30.27 "Hg10 mi
8:53 PM55 °FClear.No wind72%30.27 "Hg10 mi
7:53 PM61 °FSunny.No wind58%30.27 "Hg10 mi
6:53 PM66 °FSunny.No wind47%30.25 "Hg10 mi
5:53 PM71 °FSunny.No wind30%30.25 "Hg10 mi
4:53 PM71 °FSunny.No wind30%30.27 "Hg10 mi
Weather by CustomWeather, © 2016

See weather overviewHow to use our weather pages